Location: ?????
(37.7324°N, 23.9257°E)
Time: 08:16:56
(UTC+00:00)

deb Chang Zheng 4 - Pass Details

Date: 29 November 2020
Orbit: 601 x 623 km, 98.6° (Epoch: 17 January)

Event Time Altitude Azimuth Distance (km) Brightness Sun altitude
Rises 03:52:24 0° 3° (N) 2,906 6.9 -16.8°
Reaches altitude 10° 03:54:44 10° 354° (N) 1,998 6.0 -16.4°
Maximum altitude 03:58:40 35° 289° (WNW) 1,016 4.1 -15.6°
Drops below altitude 10° 04:02:36 10° 224° (SW) 1,990 5.9 -14.9°
Sets 04:04:55 0° 215° (SW) 2,893 6.8 -14.5°
